Tracking 25963 objects as of 12-Aug-2022
HD Live streaming from Space Station
objects crossing your sky now

GLOBALSTAR M055

Track GLOBALSTAR M055 now!
10-day predictions
GLOBALSTAR M055 is classified as:


NORAD ID: 25910
Int'l Code: 1999-049D
Perigee: 1,553.5 km
Apogee: 1,564.8 km
Inclination: 52.0 °
Period: 117.1 minutes
Semi major axis: 7930 km
RCS: 2.0613 m2 (large)
Launch date: September 22, 1999
Source: Globalstar (GLOB)
Launch site: TYURATAM MISSILE AND SPACE COMPLEX (TTMTR)
aabbcc
Your satellite tracking list
Your tracking list is empty




NASA's NSSDC Master Catalog

Two Line Element Set (TLE):
1 25910U 99049D   22224.31494183 -.00000021  00000-0  62771-3 0  9993
2 25910  52.0021  96.1248 0007138 125.5123 234.6395 12.29368262 40385
Source of the keplerian elements: AFSPC